Theta_e
332 330 330 331 330 328 329 330 330 328 327 326 325 324 322 319 315 310 312 310 315 320 325 324 325 328 330 331 331 333 332 336 337 334 338 338 334 336 336 338 337 337 337 337 337 337 338 338 339 340 341 340 341 342 342 342 341 341 341 341 342 341 341 340 340 339 339 339 339 338 337 336 337 338
331 332 331 332 329 330 331 330 330 330 328 327 326 323 322 321 318 313 312 311 314 319 321 322 325 326 329 331 332 331 330 340 339 335 332 332 333 335 335 336 337 337 336 335 334 335 336 336 337 336 336 336 338 339 340 340 340 341 341 341 341 341 341 339 339 340 339 339 338 338 337 337 337 337
332 331 330 330 329 328 330 328 329 330 330 328 326 324 323 323 320 317 313 311 315 321 321 322 326 326 327 330 331 332 331 337 339 333 332 332 336 338 337 336 335 335 334 334 333 332 332 332 334 334 334 335 336 338 339 339 339 339 340 341 341 341 340 339 338 339 339 339 339 338 337 337 337 337
332 331 330 330 329 328 328 327 328 329 329 328 326 327 326 323 322 321 317 315 316 320 322 320 324 327 328 329 329 328 329 333 343 333 333 333 342 337 334 337 336 334 333 332 331 330 329 330 332 333 334 335 336 338 337 336 336 337 338 338 339 340 340 338 338 339 339 339 338 338 337 337 337 337
332 332 331 330 330 328 328 328 328 329 329 328 328 328 326 325 323 323 321 319 320 321 321 324 326 326 329 328 327 327 327 328 328 337 332 331 330 331 331 332 335 335 333 331 330 330 329 330 331 332 333 334 336 337 338 336 335 336 335 334 334 335 336 335 334 337 338 338 338 337 337 337 336 336
333 332 331 330 330 329 329 328 328 329 329 329 327 327 328 326 326 326 324 322 319 320 319 322 323 326 328 328 326 328 328 328 330 328 329 329 329 330 331 330 330 335 333 330 329 329 328 329 330 330 332 332 333 334 334 333 332 333 332 331 331 331 330 329 331 333 334 335 336 337 337 337 336 336
332 331 331 331 330 332 329 329 329 329 329 330 329 329 329 327 327 327 326 323 321 321 323 321 322 322 326 328 328 327 329 330 329 328 330 331 332 332 330 330 331 335 333 330 329 328 328 328 328 329 330 330 329 330 329 328 329 328 327 327 329 329 328 328 329 331 331 333 334 335 335 335 335 335
332 331 330 330 331 331 330 328 328 328 329 330 330 329 330 329 328 329 328 327 326 324 323 322 324 324 324 325 326 328 329 328 329 329 330 329 330 331 331 329 329 332 332 331 329 328 327 327 326 326 326 325 325 324 323 324 325 325 324 324 324 324 325 325 325 328 328 328 329 331 332 333 332 330
332 332 331 331 330 330 330 328 328 329 328 329 330 329 330 331 331 331 330 329 328 326 325 325 323 324 324 325 326 326 327 328 326 326 326 328 328 329 330 331 332 334 332 332 331 329 328 328 327 326 325 325 324 323 322 322 322 322 322 322 322 323 323 324 323 324 324 324 325 324 325 327 328 328
333 332 332 331 331 330 330 329 329 329 329 329 329 329 330 331 331 330 329 329 328 327 328 326 325 322 325 324 324 325 326 326 327 327 327 326 325 325 326 327 330 331 332 330 331 331 329 329 328 326 326 325 323 323 322 321 321 320 319 317 316 318 320 321 322 322 322 322 323 324 324 325 325 326
334 333 332 331 331 331 331 330 330 330 330 331 330 331 331 331 330 329 328 328 327 326 326 325 325 324 323 323 324 324 326 326 325 325 324 324 323 323 323 326 327 328 329 331 332 331 331 330 329 323 321 323 324 324 323 322 321 320 318 316 315 315 315 316 318 319 319 320 320 320 319 319 322 324
334 334 334 333 332 332 332 331 331 331 330 330 330 331 331 331 330 329 329 327 326 325 325 324 324 322 322 319 323 323 321 321 320 323 324 322 321 322 320 321 325 325 327 327 328 330 329 328 326 324 324 326 326 325 325 326 327 325 321 319 320 319 316 316 316 317 316 316 315 315 316 316 318 320
334 335 335 334 333 335 338 339 338 336 336 332 331 332 333 332 330 329 328 328 327 326 325 324 323 321 320 321 321 319 318 319 321 318 320 321 322 322 323 324 324 326 326 326 326 326 326 325 325 324 323 324 327 326 327 326 328 326 321 320 321 321 320 318 317 317 316 316 315 314 315 316 318 320
335 335 335 336 341 341 343 341 340 338 339 339 336 334 333 333 331 330 329 327 327 326 324 324 324 322 322 322 321 320 320 320 319 318 317 317 320 316 318 320 322 325 325 323 323 324 324 322 322 321 320 321 323 321 320 320 321 323 321 320 320 320 320 318 317 316 316 316 315 315 314 315 317 318
335 335 335 334 340 342 344 342 343 342 341 341 340 339 338 337 333 330 329 328 327 326 325 325 323 323 322 323 322 321 322 320 321 320 317 318 317 317 314 316 320 325 324 322 317 319 319 319 318 318 318 319 319 319 319 323 324 321 321 320 320 320 319 319 320 319 317 316 315 315 314 314 316 316
335 335 335 335 336 338 338 338 341 343 342 340 341 340 337 336 335 334 332 330 327 325 325 323 324 323 322 323 321 322 320 321 320 320 319 318 318 317 314 313 316 321 325 318 315 316 318 316 317 316 317 318 319 320 321 322 323 322 320 320 320 320 319 319 320 320 319 319 318 319 319 318 318 317
335 335 335 335 335 336 343 342 337 338 340 340 339 338 339 336 332 328 328 328 330 328 325 325 324 324 323 322 324 325 322 321 319 317 316 316 316 317 315 316 316 322 321 316 312 313 315 314 315 315 317 318 318 319 322 322 322 321 320 319 319 319 318 318 318 318 317 316 316 315 315 314 314 315
336 335 335 334 333 333 337 339 338 336 337 338 338 337 335 334 336 331 325 325 326 329 329 326 325 326 326 325 325 327 324 320 320 318 318 317 317 317 318 319 318 319 319 315 311 309 313 316 314 314 315 317 317 318 319 320 319 319 318 318 317 316 316 316 316 316 315 315 314 313 312 311 311 312
336 335 335 334 333 333 333 337 338 335 334 333 332 330 329 329 330 329 330 327 328 329 327 326 326 327 328 327 327 327 327 325 324 323 323 322 321 319 314 313 313 315 316 314 311 309 311 312 312 314 315 316 315 315 315 316 316 316 315 315 316 315 315 315 315 314 314 314 313 312 311 311 310 309
336 335 334 333 333 333 333 335 334 339 334 332 330 328 326 327 329 330 332 326 330 332 330 330 329 329 330 326 329 329 327 324 324 324 322 317 315 313 310 310 311 312 314 315 312 308 308 311 311 312 311 310 308 309 309 313 313 313 313 314 314 313 312 312 312 312 313 313 313 312 311 309 308 308
335 335 334 333 333 332 332 331 325 330 341 331 330 328 326 328 330 330 328 323 324 323 321 321 323 323 321 321 319 317 317 322 321 317 314 313 311 311 308 310 309 311 311 313 315 311 309 308 307 308 308 308 308 308 309 309 312 313 312 312 312 312 311 311 311 311 312 312 312 312 312 310 309 310
334 335 341 338 333 333 333 326 323 324 336 331 330 330 329 327 326 327 327 329 327 322 320 320 319 319 319 318 317 316 315 314 318 317 314 312 310 310 309 307 309 311 313 314 315 306 304 305 303 304 304 307 307 309 308 309 311 314 311 311 312 312 312 312 311 311 312 312 312 312 311 309 309 313
334 333 339 342 337 335 331 322 321 321 333 333 331 330 328 327 327 325 325 325 323 321 322 322 322 322 321 321 318 322 321 317 318 317 317 313 312 310 311 312 308 306 306 311 312 305 303 304 303 303 302 301 304 306 309 311 310 310 312 312 312 313 313 313 311 310 310 311 311 312 310 309 310 314
331 332 333 335 327 324 322 318 316 317 323 332 332 329 326 324 325 324 324 325 322 322 322 319 320 320 319 318 317 317 316 320 324 319 317 315 314 312 310 313 310 305 304 306 311 306 303 303 304 302 304 302 299 302 307 307 309 311 311 310 309 312 315 314 312 311 309 309 310 310 310 309 310 313
330 330 331 335 327 319 318 315 312 312 316 325 328 328 327 329 326 321 321 327 329 321 321 319 318 316 317 315 314 315 314 318 318 318 316 317 315 312 310 307 307 307 309 313 317 308 304 301 303 301 304 302 301 303 304 306 307 308 311 310 308 310 311 312 313 314 312 311 309 309 308 309 310 312
330 330 330 330 326 316 315 312 309 308 311 318 327 328 320 317 318 321 321 320 319 317 317 313 315 315 312 310 312 313 316 317 320 312 313 315 314 314 311 308 306 304 305 309 314 306 304 303 305 305 304 302 303 304 303 304 305 306 307 307 308 309 311 312 313 314 315 316 317 314 315 313 312 312
329 328 328 329 323 314 310 308 306 307 310 315 324 317 311 312 318 324 318 319 315 312 312 313 312 310 310 311 310 312 313 313 312 313 311 310 310 312 315 313 309 308 309 310 313 310 307 303 306 305 305 305 303 303 302 300 301 304 306 307 308 309 311 312 313 314 316 316 317 313 311 311 311 312
327 326 327 325 314 308 302 302 306 308 311 321 313 309 311 315 319 319 318 313 313 315 312 311 310 309 308 309 308 311 313 313 310 310 309 309 308 308 309 308 314 314 312 311 311 310 308 308 308 309 307 304 302 299 299 301 305 304 304 307 309 310 312 314 314 316 317 317 316 315 315 315 316 317
327 321 315 310 307 304 303 305 308 310 310 311 307 308 313 320 316 315 312 311 311 309 310 310 310 309 311 309 312 312 309 312 312 312 310 310 310 309 308 309 312 312 313 314 311 309 308 308 307 306 303 301 300 301 302 301 302 303 306 307 306 308 312 313 314 313 315 315 314 315 314 314 315 316
318 314 312 309 307 307 310 315 318 319 318 311 311 312 317 315 312 312 310 309 310 309 309 310 310 309 308 309 310 310 312 310 309 308 308 307 309 308 307 306 306 306 307 307 308 307 306 305 304 303 302 303 304 302 303 302 302 303 307 305 306 310 313 313 313 313 315 314 314 314 314 315 315 316
317 315 316 316 313 313 314 318 319 319 315 313 312 314 314 313 313 313 310 309 310 311 309 310 309 307 308 309 312 310 309 309 308 308 311 307 306 308 305 304 304 304 304 304 305 307 306 306 306 303 302 303 305 304 303 303 302 302 303 305 307 305 308 311 312 312 312 312 312 313 314 314 315 317
320 318 315 313 318 318 318 318 316 315 315 314 312 311 311 312 313 315 317 317 309 307 307 307 307 310 309 308 308 309 308 307 307 309 309 308 305 306 304 300 300 301 301 303 304 307 312 309 307 306 305 304 302 302 302 302 301 302 302 306 309 309 311 310 309 309 311 311 311 311 313 313 313 314
319 318 318 317 317 318 318 316 314 314 313 313 312 311 310 310 310 312 312 312 312 311 309 310 309 309 307 308 309 310 307 307 306 305 304 305 304 303 301 300 301 300 299 300 303 304 304 303 307 306 304 303 303 303 301 300 301 303 303 305 306 306 307 308 308 309 310 310 310 311 312 313 314 314
319 319 319 318 318 316 316 315 314 313 313 313 311 310 311 310 309 309 310 310 310 311 311 310 308 309 308 307 307 305 305 305 304 303 307 305 305 302 299 299 299 300 302 301 301 302 302 302 302 303 303 305 306 304 303 301 301 303 304 304 304 304 306 307 308 309 310 311 311 310 310 310 311 312
319 318 318 317 316 317 316 316 315 314 313 313 311 310 311 311 311 312 310 310 309 310 310 309 308 308 307 306 305 303 305 305 304 304 305 305 303 300 300 299 299 300 300 301 300 300 300 301 301 300 300 300 300 299 308 306 302 303 304 303 304 304 305 307 309 310 311 312 311 309 308 307 307 308
319 319 318 316 315 315 315 315 315 314 312 312 312 311 310 311 312 312 311 309 310 309 308 307 308 307 307 306 304 303 303 305 304 302 301 300 300 301 300 300 301 300 299 298 299 299 300 300 299 298 297 296 295 295 297 310 312 305 302 301 303 303 305 307 310 311 311 310 309 307 304 303 304 305
318 317 317 316 315 315 315 314 314 313 313 312 311 311 310 310 309 311 309 307 308 309 309 306 305 304 305 304 305 306 305 303 300 301 301 299 299 300 297 298 300 299 298 297 298 300 300 299 299 297 295 295 294 294 296 300 304 307 303 301 303 304 306 308 309 309 309 308 307 305 304 303 303 304
317 317 317 317 316 315 314 313 313 312 312 311 309 309 308 306 307 306 304 305 306 306 306 303 304 303 302 304 302 301 302 303 301 300 300 298 297 296 296 296 296 297 296 298 300 300 299 298 298 297 295 294 293 294 294 299 300 302 306 304 303 305 308 308 307 307 307 307 305 305 305 303 303 304
318 317 318 318 316 314 313 311 312 310 309 308 308 308 307 306 304 303 303 303 304 304 303 303 303 304 303 302 302 301 299 298 297 297 298 297 297 295 296 297 297 296 296 297 298 298 299 296 298 297 296 295 294 296 297 297 298 303 305 304 304 305 307 308 307 307 306 304 304 305 305 306 307 309
320 319 318 315 312 311 311 311 309 308 308 308 307 306 307 306 304 304 303 304 303 304 303 303 303 301 300 300 299 297 297 297 297 296 297 297 298 299 297 299 298 297 295 297 297 298 297 298 299 298 299 300 301 302 302 302 301 302 304 307 306 307 309 308 307 306 304 304 303 302 301 302 301 302
318 315 312 311 310 310 310 308 307 307 306 306 307 307 305 304 303 303 302 302 305 300 301 298 298 298 297 296 297 296 296 297 296 296 299 298 298 299 301 303 296 296 295 296 296 297 298 299 303 307 307 303 302 301 301 300 301 303 304 307 306 307 307 308 306 304 303 304 303 301 300 299 299 298
316 313 310 309 310 309 308 307 306 306 306 305 306 306 304 304 305 309 306 308 301 300 299 298 297 299 298 296 296 299 296 295 295 296 299 296 295 296 299 298 294 295 295 295 296 297 299 301 303 303 300 300 300 299 299 301 301 302 303 305 308 308 308 307 306 307 305 303 302 300 300 299 298 296
313 311 309 309 309 308 307 308 306 306 306 305 304 304 303 303 302 303 301 300 298 300 298 299 296 299 296 295 295 295 294 296 295 294 295 296 296 295 295 295 296 296 296 297 298 299 299 299 298 299 298 297 298 301 300 302 302 302 303 304 306 307 307 308 306 306 306 307 306 304 302 300 296 292
311 311 309 308 308 307 306 306 305 305 305 305 304 303 303 302 301 299 298 297 297 297 296 297 296 296 295 294 296 293 294 295 294 295 296 297 296 296 295 296 298 298 297 297 297 297 297 297 298 298 297 296 297 299 302 302 302 303 303 304 305 303 302 303 304 305 305 306 306 305 305 304 303 302
311 310 309 308 307 306 306 305 305 304 304 303 303 302 303 301 299 297 296 297 297 297 298 296 296 295 296 297 295 295 297 302 297 296 297 296 295 296 296 296 297 297 297 296 294 295 296 296 297 297 295 297 299 300 305 305 304 304 303 302 302 302 301 302 300 300 300 301 303 304 304 303 303 302
Wind_Speed
5 4 5 5 4 3 3 2 3 4 3 3 5 5 7 6 4 1 1 2 3 2 2 2 1 1 1 2 3 3 4 5 4 3 3 4 4 6 10 12 13 13 14 14 14 14 14 14 14 14 15 15 15 15 15 15 15 15 14 13 13 12 11 10 10 10 10 10 10 11 11 11 11 11
5 4 4 4 4 3 3 4 3 3 4 4 5 4 3 6 5 4 2 5 3 2 1 1 1 0 2 1 1 2 2 4 3 3 3 4 4 8 10 10 10 11 12 13 13 14 14 14 14 14 14 14 15 16 16 16 15 15 15 14 15 14 12 11 10 11 12 12 12 11 12 12 12 11
6 5 5 4 4 3 4 3 3 2 4 5 5 4 5 4 4 5 3 1 3 2 3 3 3 2 2 1 2 2 1 2 2 3 3 4 6 9 7 10 10 11 11 12 12 13 13 14 13 13 13 13 14 15 16 16 16 15 15 14 15 14 13 12 12 11 11 12 12 12 12 12 12 13
6 6 5 5 5 4 3 3 4 4 3 3 5 5 5 3 4 6 5 5 6 4 4 3 3 3 3 3 2 3 2 2 4 2 3 3 5 4 4 7 10 11 11 11 12 12 12 12 12 13 13 13 14 14 15 16 16 16 15 14 14 14 13 12 11 10 12 12 12 12 12 12 13 13
5 6 6 5 5 4 5 5 5 4 4 3 3 4 5 5 3 5 4 4 5 3 3 3 4 1 1 2 2 3 3 3 2 3 3 3 3 3 4 5 8 10 10 11 11 12 12 12 12 13 13 13 13 14 15 16 16 16 16 15 15 14 13 13 12 11 11 12 13 13 13 13 12 12
6 5 6 6 5 5 6 5 5 5 5 5 5 4 5 6 5 4 4 5 2 4 1 2 2 3 2 3 1 4 3 4 1 2 2 2 3 4 4 4 5 8 9 10 11 11 12 12 13 13 13 13 14 15 15 16 16 16 15 15 15 15 14 14 13 11 12 12 12 12 12 13 13 12
6 6 7 7 5 4 5 5 5 4 5 6 7 7 5 6 6 5 5 4 4 5 5 2 2 2 2 4 4 3 2 1 1 3 4 4 4 3 3 4 4 6 9 10 10 11 11 11 12 12 13 13 14 15 16 16 16 16 16 15 15 14 14 14 15 14 13 11 11 12 12 12 12 12
8 8 7 7 6 5 6 5 5 5 5 6 6 6 5 5 6 5 5 5 5 4 5 3 2 2 2 3 3 2 2 2 3 3 4 3 4 5 5 3 3 6 9 9 9 9 11 11 11 11 12 12 12 13 13 14 15 15 15 15 15 14 14 14 14 14 14 14 13 11 12 12 12 12
8 9 9 7 6 6 7 5 5 5 6 5 6 6 5 5 5 4 5 6 4 4 5 4 3 2 2 2 3 2 3 3 2 2 3 4 4 5 5 4 4 6 8 8 8 8 8 8 8 8 8 9 10 11 11 12 12 13 14 14 14 14 14 14 14 14 14 14 14 13 12 13 13 13
8 9 9 7 7 7 8 7 6 6 7 5 6 5 5 5 4 5 5 4 5 5 6 4 4 1 3 3 3 2 2 3 4 5 5 4 3 3 5 4 3 2 3 3 3 5 6 7 8 8 7 7 8 8 9 10 11 12 12 12 13 13 14 14 14 14 14 14 14 14 14 13 12 12
7 8 8 8 8 9 9 8 8 7 6 6 6 7 7 5 5 5 4 4 5 5 5 4 5 5 4 3 6 1 1 1 3 4 6 6 3 3 4 6 3 1 3 5 8 7 6 6 5 6 7 7 7 7 8 9 9 10 11 12 13 13 13 13 13 14 14 14 14 13 13 13 13 11
8 9 9 8 9 9 9 9 8 8 8 6 7 6 5 5 5 5 4 4 5 5 6 6 6 5 4 2 3 1 1 1 3 3 4 6 6 6 3 3 5 4 4 7 6 4 3 3 3 3 4 7 8 9 8 9 10 11 11 10 10 11 12 12 12 13 13 13 13 13 13 14 14 13
8 8 8 8 8 9 10 12 11 10 8 7 8 6 6 6 6 5 5 5 5 6 6 6 4 4 5 5 4 3 3 5 7 2 3 5 5 5 6 6 3 4 5 5 5 6 5 5 6 5 5 6 6 7 8 8 10 10 10 11 12 11 10 11 12 12 12 12 12 13 13 14 14 14
9 10 8 8 13 13 15 15 14 13 13 13 10 8 7 7 6 6 6 6 6 6 6 7 7 6 7 7 6 5 4 3 1 1 2 4 5 2 5 6 5 4 3 3 5 6 4 1 5 6 6 7 4 5 5 5 6 7 10 11 12 12 12 11 10 11 11 12 12 12 13 13 14 14
11 9 9 8 10 12 12 12 15 13 14 15 15 13 12 10 9 7 7 7 6 6 7 6 6 7 7 7 4 4 4 2 4 4 3 5 3 4 4 6 4 1 5 4 2 5 3 1 5 6 7 7 6 6 6 9 10 10 10 11 11 11 11 10 10 9 9 9 10 11 12 13 13 14
9 9 9 8 7 7 9 8 9 11 15 15 15 15 13 13 12 11 9 8 6 6 6 5 7 6 7 6 2 3 2 5 5 5 4 5 5 5 5 3 4 2 4 2 2 6 5 2 4 6 7 6 5 7 9 12 11 11 12 12 12 11 11 10 10 10 10 10 10 10 10 11 11 12
10 8 8 7 6 6 12 9 8 8 10 14 17 15 13 11 11 11 12 7 5 4 5 6 7 7 5 4 4 3 4 3 4 3 4 4 5 5 5 6 4 4 2 1 2 5 6 3 3 5 7 6 5 6 8 10 11 12 13 13 14 14 13 12 11 11 11 12 12 12 12 12 12 12
9 8 8 7 7 6 7 8 8 8 8 7 7 7 5 5 7 10 6 11 10 8 8 5 4 3 3 4 5 3 1 2 4 4 6 4 4 4 6 4 4 3 0 2 2 3 6 4 3 5 6 5 4 5 8 11 11 13 13 14 15 15 14 13 13 13 13 13 13 13 14 14 14 13
9 8 8 7 8 8 8 8 9 8 8 6 6 5 4 4 4 2 4 6 7 5 5 3 6 6 4 2 4 5 7 8 6 5 5 4 3 2 1 3 2 4 2 2 2 5 4 3 3 5 5 4 5 5 7 11 12 13 14 14 13 13 13 13 14 14 15 15 15 15 15 15 15 14
7 7 8 8 8 8 9 10 13 11 7 7 6 6 4 3 2 5 7 6 7 7 6 7 1 1 4 5 7 8 7 5 3 2 0 0 0 1 3 5 3 2 3 3 4 3 3 3 3 5 4 3 6 6 6 9 12 13 13 13 13 13 14 14 15 15 15 16 16 16 16 15 16 16
7 7 8 8 8 8 7 10 13 13 10 6 6 5 4 3 2 4 4 6 9 9 7 7 7 9 7 8 13 15 13 7 3 2 0 3 1 1 4 3 2 4 2 2 5 3 4 4 3 6 4 4 6 6 6 6 9 12 12 13 14 14 14 15 15 15 16 16 16 17 16 16 15 16
7 9 15 11 8 8 8 11 14 13 9 6 6 5 4 3 2 5 4 2 1 3 6 9 9 8 8 10 11 11 9 5 5 3 4 3 1 2 3 4 2 4 4 4 3 2 5 3 2 4 4 3 3 5 6 6 7 9 9 12 13 14 15 15 16 16 16 17 17 17 17 16 15 10
7 6 10 14 10 8 9 13 14 13 10 7 6 5 4 2 5 8 8 8 5 3 4 2 0 1 1 2 3 2 3 1 3 3 5 3 3 4 4 4 2 3 4 4 4 2 3 3 4 3 4 3 5 5 6 6 5 5 6 7 9 12 14 15 15 16 16 17 17 17 17 17 14 7
6 6 6 9 14 14 14 13 14 13 13 9 5 4 3 3 7 9 8 5 6 6 5 4 2 2 2 3 2 3 3 2 3 5 5 4 5 5 5 4 3 3 3 2 3 2 3 2 5 2 3 5 5 4 3 4 5 6 6 7 7 11 13 13 11 14 15 15 17 16 16 16 14 7
6 6 5 5 10 15 13 12 13 12 13 7 5 6 7 8 6 9 6 8 10 6 4 3 1 2 1 1 1 2 3 4 3 3 3 4 6 6 5 4 4 5 6 6 5 1 3 1 4 2 4 3 4 5 5 5 5 6 7 7 8 8 7 8 6 8 10 14 15 16 16 16 16 11
5 6 7 7 9 13 12 12 11 10 9 8 5 8 8 8 12 7 5 5 6 5 5 5 4 3 3 3 3 2 1 1 2 3 4 5 5 5 5 5 5 3 5 6 3 2 2 3 5 5 4 4 6 4 7 7 6 7 6 6 7 8 8 9 8 8 8 8 7 8 11 14 14 16
7 6 6 6 10 12 12 9 9 10 11 9 8 8 10 9 9 6 5 4 4 4 3 3 3 3 2 1 1 1 1 2 3 4 3 3 3 3 3 3 5 6 7 6 5 2 3 4 2 4 7 5 7 6 5 6 7 5 6 6 7 7 8 7 8 9 8 8 8 13 14 13 15 16
6 6 6 7 10 10 11 11 10 9 10 6 6 8 11 10 7 4 5 4 4 3 2 1 2 1 0 1 1 2 2 2 3 4 2 2 2 3 4 3 3 4 6 6 7 3 4 5 6 6 6 6 7 7 9 5 7 7 10 8 6 7 8 7 8 7 7 8 8 8 7 8 8 8
6 7 9 11 12 12 11 11 9 7 7 9 9 10 10 9 5 5 5 5 4 3 2 2 2 0 1 2 3 3 3 2 1 1 2 1 1 2 1 2 3 3 3 3 4 4 3 5 7 6 4 3 5 6 6 9 7 8 8 10 8 7 7 7 7 8 8 8 8 8 8 9 9 8
9 10 10 11 12 11 10 8 5 4 3 9 11 10 9 4 5 4 5 3 4 4 3 2 3 2 1 1 3 2 1 0 2 1 1 3 5 5 5 6 7 6 5 3 4 5 4 4 5 4 5 6 6 7 7 8 8 8 8 9 10 9 7 8 7 7 8 9 9 10 9 8 9 8
6 6 5 5 7 8 9 9 8 6 6 5 5 4 3 3 3 3 3 5 5 3 3 3 2 2 3 2 1 1 1 2 4 1 1 1 4 3 2 1 5 6 7 6 5 4 4 5 5 3 4 6 6 7 8 6 8 9 9 8 7 9 7 7 8 8 8 9 8 9 9 9 9 10
6 7 8 9 7 7 7 6 5 4 3 3 4 3 3 3 2 3 5 4 2 2 2 2 2 1 1 1 2 2 2 3 3 0 1 0 3 2 1 2 3 3 6 6 6 6 4 4 5 5 5 6 7 7 6 6 8 9 9 9 8 8 8 9 9 9 9 9 9 10 10 9 10 10
6 6 6 5 5 6 7 7 6 5 5 4 3 3 3 3 3 3 4 4 5 4 4 5 5 5 3 3 1 1 2 3 3 0 1 1 2 2 1 3 5 5 5 7 6 7 6 6 4 4 6 6 7 8 7 8 8 7 8 9 8 8 8 8 8 9 10 9 10 10 11 10 10 11
7 6 6 6 6 6 6 6 6 6 6 6 5 4 5 5 4 4 4 5 4 4 5 5 4 4 2 2 1 1 3 3 3 0 1 1 1 0 1 3 5 5 3 5 6 7 6 5 6 6 5 5 5 7 8 8 10 9 8 7 8 9 9 8 8 8 8 9 11 13 13 12 10 10
7 7 7 6 5 6 6 6 6 6 6 6 6 6 6 5 5 5 5 5 4 4 5 2 2 1 2 3 2 3 3 2 3 2 1 0 0 2 2 3 5 5 5 6 7 6 5 6 6 7 6 6 8 4 8 10 8 9 8 8 7 7 9 8 8 8 8 9 8 12 15 13 13 9
7 7 7 6 6 6 6 5 5 5 6 5 5 5 5 5 5 5 5 5 5 5 4 5 4 4 5 5 3 3 2 1 1 1 3 2 1 1 1 3 3 5 5 6 6 6 5 6 5 6 7 8 7 9 9 6 7 6 8 10 8 7 7 8 8 8 9 10 9 10 14 16 15 13
7 6 7 7 6 6 6 6 6 5 5 6 5 5 5 5 5 5 4 4 5 4 5 5 4 4 3 3 3 2 1 1 2 1 1 2 1 1 2 3 3 4 5 6 6 6 4 5 6 5 6 7 8 10 11 6 9 9 5 9 9 8 8 9 9 9 9 9 10 9 13 15 17 15
8 7 7 6 6 6 5 5 5 5 5 4 4 3 3 3 4 3 3 4 4 4 5 5 4 3 3 3 2 1 1 1 1 1 1 1 1 3 3 4 6 5 6 6 6 6 5 5 6 5 4 6 9 10 12 9 6 8 8 7 9 10 7 7 9 9 11 9 10 11 10 14 17 16
7 7 7 7 6 6 6 5 6 6 5 6 6 6 5 5 5 5 5 5 4 5 4 5 4 3 3 2 2 2 2 1 1 1 1 1 1 2 3 3 5 5 4 6 6 6 6 6 6 6 5 6 7 9 9 9 10 11 12 15 9 8 7 7 9 10 10 12 13 11 11 11 17 21
7 7 7 6 6 6 6 6 6 6 7 6 6 6 7 6 6 6 6 4 4 3 3 2 2 2 1 1 1 1 1 1 1 1 1 1 2 1 2 3 4 4 4 6 7 7 7 7 7 6 7 8 9 9 8 10 9 9 10 11 7 6 8 7 8 10 12 11 12 14 16 13 14 12
6 6 6 6 6 6 7 6 6 6 6 6 6 5 6 6 7 6 6 5 4 4 2 1 1 1 1 2 2 3 3 1 1 1 1 1 1 1 3 3 3 3 4 6 6 7 8 8 9 15 11 7 8 6 4 5 9 10 11 11 11 9 10 8 6 8 10 12 12 13 15 15 15 15
6 6 6 6 8 6 7 7 6 6 6 6 6 6 5 5 5 5 4 3 3 3 3 4 4 4 3 3 4 3 3 3 1 1 0 0 2 2 3 3 4 5 4 6 7 8 9 8 8 7 6 6 5 5 6 7 9 10 11 10 10 9 9 10 11 11 10 10 11 13 14 15 13 14
6 7 7 7 7 7 6 7 6 6 6 6 6 6 6 6 4 4 5 4 4 5 4 4 5 6 5 4 4 4 3 2 2 1 0 0 1 2 3 5 4 5 5 6 6 7 8 8 6 7 7 5 3 2 6 8 8 9 10 10 10 9 9 11 12 14 15 16 14 12 11 12 14 17
7 7 7 7 7 7 6 7 7 6 7 7 6 6 6 6 6 6 6 7 6 6 6 6 5 6 6 6 4 3 2 2 2 1 0 1 1 2 3 4 4 4 5 5 6 7 7 7 7 6 6 7 4 4 7 8 9 9 9 9 8 9 11 11 10 10 10 10 12 14 16 18 18 22
6 7 7 7 7 6 6 6 6 6 6 6 6 6 6 5 6 6 5 5 6 5 5 6 6 5 5 4 6 4 2 2 2 1 0 1 1 1 2 3 4 4 6 6 6 7 7 7 8 5 4 6 4 4 6 6 9 9 9 9 10 9 10 10 11 13 12 11 8 12 16 20 25 26
Wind_Direction
202 201 192 197 206 216 205 196 176 177 162 164 164 168 167 163 147 182 259 282 225 265 192 171 253 261 196 192 234 211 212 226 223 226 248 259 260 257 252 245 239 238 239 240 242 243 246 249 252 257 261 266 269 271 271 271 271 271 271 270 268 267 266 260 259 260 262 256 247 252 258 263 266 268
198 202 195 192 204 202 174 200 170 158 160 148 160 169 150 149 164 175 191 265 215 228 287 199 225 327 331 13 136 178 223 231 222 195 214 234 245 250 252 255 255 252 250 248 246 246 247 249 252 256 261 264 269 272 273 271 268 267 268 267 267 267 267 265 259 255 253 253 253 250 254 259 263 265
189 200 202 190 207 191 191 190 167 148 144 150 140 141 141 158 146 158 145 201 279 188 218 275 238 246 284 302 326 328 306 223 199 203 217 233 244 256 262 259 257 257 255 252 251 250 249 249 250 253 255 260 264 267 270 274 274 272 269 266 264 262 260 262 262 260 258 253 250 246 247 250 254 258
196 197 203 196 198 195 183 176 176 171 166 145 149 155 158 157 152 144 147 181 246 226 209 229 283 250 264 311 304 292 299 311 315 299 286 275 279 280 273 276 269 265 265 265 264 259 252 249 248 250 254 257 260 263 266 270 273 274 272 268 265 262 260 256 253 248 251 252 251 247 243 244 246 251
199 201 206 203 198 180 183 187 178 174 171 151 160 156 151 163 167 149 160 190 247 292 236 228 243 276 187 303 222 238 272 288 275 245 250 264 265 264 262 266 273 272 271 269 270 271 272 270 267 264 262 261 261 262 264 267 269 270 272 273 272 269 265 261 256 251 244 241 245 247 245 244 244 246
207 199 207 210 193 184 186 184 182 186 171 172 172 180 175 177 189 191 149 202 209 260 308 275 287 268 192 226 235 201 242 264 258 271 269 239 230 259 267 267 271 270 270 272 272 273 272 271 270 269 268 268 267 266 266 268 269 269 269 270 271 273 273 271 266 255 251 251 248 242 239 245 252 252
194 204 209 208 189 176 182 188 195 182 185 180 183 192 185 185 195 192 191 157 215 254 270 245 264 261 219 201 242 229 211 257 278 298 294 299 304 278 261 265 270 269 266 263 264 265 266 265 267 270 269 266 263 264 265 266 267 267 267 266 265 264 267 270 274 274 270 260 252 250 247 250 251 255
192 205 206 209 188 178 186 190 192 195 187 185 190 192 193 191 192 195 194 201 193 214 243 293 217 267 236 273 265 283 301 276 286 251 280 292 280 284 288 267 261 271 271 269 258 251 251 255 257 257 258 258 260 260 259 258 260 261 262 264 265 267 268 268 269 271 274 276 272 263 260 262 260 257
195 200 209 201 184 184 191 195 195 190 192 193 188 192 190 193 194 182 189 207 203 206 229 259 263 256 281 266 297 297 301 312 299 278 255 260 268 285 279 273 261 264 267 264 270 274 275 273 266 254 244 245 250 254 257 257 256 258 261 263 264 264 266 268 269 271 271 273 274 272 266 261 261 259
197 202 207 193 185 188 196 200 197 192 197 187 194 199 196 196 184 189 196 194 199 213 234 229 279 274 244 294 278 269 210 253 286 297 293 303 284 275 297 276 241 233 245 275 267 267 270 273 275 270 267 261 254 251 252 258 265 270 270 266 264 264 265 265 266 266 266 266 268 269 270 269 263 259
200 203 202 195 190 195 200 198 197 195 196 192 198 202 202 195 190 200 204 190 197 208 227 241 229 251 253 219 261 296 232 244 237 269 306 305 292 306 293 301 293 236 248 218 217 228 237 250 260 283 295 295 288 283 279 276 267 257 254 259 263 261 257 257 258 260 262 264 265 269 274 276 275 268
205 205 204 202 197 199 200 199 199 188 196 190 202 205 200 192 193 208 207 197 204 218 224 231 243 228 246 266 251 273 49 332 308 232 228 266 285 289 287 258 292 309 333 315 307 279 284 294 300 316 307 294 292 290 290 287 287 288 287 276 259 251 254 256 255 257 260 262 265 268 271 272 274 272
207 207 207 208 206 204 203 201 197 195 186 184 200 204 192 197 195 207 205 210 212 228 230 251 239 252 249 231 224 252 220 217 238 234 177 244 261 277 296 285 262 257 284 293 303 304 317 328 316 314 307 291 288 289 285 286 287 287 289 291 292 287 268 250 251 254 252 252 253 254 257 260 264 268
209 210 209 211 205 201 206 207 208 205 201 201 199 199 190 198 196 203 211 212 217 223 232 238 239 244 249 237 214 222 227 209 211 230 211 234 266 307 282 288 266 230 216 260 275 274 290 264 293 300 293 288 289 278 279 261 263 279 285 284 283 280 278 271 252 241 243 249 253 253 252 253 254 255
211 207 208 214 212 206 207 210 211 209 208 211 213 209 202 195 193 195 205 220 209 213 224 233 230 233 250 251 205 211 232 226 215 227 210 231 241 238 254 278 299 237 190 217 247 284 272 214 271 281 281 282 290 288 279 285 298 299 293 289 285 282 281 279 277 275 266 253 245 243 245 250 253 253
209 207 203 211 210 209 207 207 213 213 214 215 217 217 215 209 201 200 191 204 208 211 223 233 234 224 234 256 202 216 183 241 246 240 234 232 230 242 243 239 258 246 148 161 220 270 284 217 224 258 269 275 275 280 287 298 301 299 300 298 296 294 291 289 289 290 287 283 279 274 268 259 255 255
207 202 202 205 202 206 208 205 209 214 219 219 221 223 221 207 200 207 215 208 245 202 201 223 240 216 210 231 252 198 208 190 225 239 233 231 225 226 234 248 258 273 165 93 263 269 276 264 248 251 268 267 273 285 291 289 291 293 295 296 296 295 293 294 295 294 292 292 291 289 285 278 268 260
205 193 193 197 198 196 201 205 206 212 217 216 218 220 210 200 206 211 212 224 213 184 201 200 260 4 62 275 270 279 116 205 241 232 250 232 233 222 231 240 247 268 44 268 239 279 277 261 247 259 263 258 266 263 261 268 275 280 281 281 282 285 294 297 294 292 291 289 287 284 282 281 278 271
202 194 192 193 194 190 198 205 204 204 207 206 209 207 207 194 206 129 161 189 182 164 83 107 220 212 205 255 306 304 272 240 235 225 242 240 225 239 293 314 256 278 271 169 149 247 264 282 289 274 278 268 259 255 265 270 273 275 275 277 283 287 285 283 284 285 286 285 283 281 280 279 279 276
197 188 180 192 196 192 198 207 206 203 194 199 203 209 202 201 142 142 194 172 88 110 169 213 185 95 232 242 266 269 254 252 255 269 316 63 136 352 333 294 312 289 280 174 177 240 266 257 262 272 267 283 286 277 274 275 274 274 277 279 279 278 278 278 278 279 279 280 279 278 277 277 276 276
191 182 191 196 197 195 199 200 203 206 187 190 200 202 206 202 139 108 122 134 129 152 202 237 224 221 249 270 268 265 263 251 225 139 44 286 178 322 302 295 315 281 284 256 199 206 265 261 228 282 276 279 280 284 279 277 275 275 278 280 280 279 278 277 276 276 276 275 274 273 272 271 271 271
191 193 195 194 190 190 201 196 201 204 194 191 199 201 204 221 111 104 116 125 200 239 234 235 237 235 234 242 249 247 249 216 187 151 233 231 123 265 233 260 250 286 298 257 167 148 234 274 267 274 282 303 264 266 268 269 277 282 285 281 278 276 274 274 275 274 273 272 271 272 270 268 269 272
199 197 201 195 187 191 203 197 199 196 189 197 197 189 183 186 90 137 162 184 179 205 246 272 334 334 279 238 230 260 302 160 184 188 220 189 174 222 233 238 275 322 289 267 154 203 280 315 270 248 321 300 270 263 260 263 271 277 277 279 284 276 272 272 271 270 269 268 268 268 268 267 267 266
201 197 193 198 196 195 199 195 191 188 188 190 181 138 161 171 163 171 175 161 169 202 203 197 191 224 264 302 334 327 325 293 217 203 206 188 176 182 207 216 210 242 241 279 168 217 262 224 268 206 213 279 298 286 290 274 258 268 269 277 276 277 279 279 274 266 261 261 261 262 263 265 263 263
190 184 190 182 202 200 197 187 185 176 193 175 127 160 184 210 156 156 158 178 178 172 170 172 180 235 265 279 267 253 245 242 225 191 186 181 176 175 195 220 233 239 249 251 253 238 256 234 271 295 277 199 246 297 275 283 257 254 266 266 275 278 281 277 270 271 266 262 258 258 262 262 262 254
182 180 178 196 198 193 184 184 174 175 176 171 158 202 196 132 137 157 157 142 130 138 146 165 186 192 200 218 220 220 223 237 186 162 177 186 196 207 199 196 219 241 270 266 234 190 241 286 249 272 278 290 275 258 297 290 277 271 261 263 262 271 273 278 280 278 274 269 272 264 262 261 261 260
191 170 174 191 188 181 187 155 142 171 179 164 205 198 130 155 155 139 123 128 123 135 162 178 199 196 193 227 286 293 268 265 209 209 209 218 216 230 228 219 202 220 252 274 283 241 183 247 261 264 274 272 286 292 276 283 292 286 282 262 266 265 261 260 265 266 269 270 269 272 274 270 265 263
166 161 177 173 166 157 128 141 165 178 182 182 176 148 163 153 151 129 132 127 153 163 165 188 238 251 197 197 260 252 243 241 226 231 234 242 220 225 254 253 248 235 252 262 274 261 192 227 265 258 244 256 272 281 285 262 273 283 292 288 273 271 271 262 259 259 260 265 271 273 275 280 272 272
163 165 150 144 141 130 142 150 168 189 193 123 144 152 146 145 131 142 146 160 141 170 215 229 243 189 178 207 226 241 251 249 228 291 315 303 258 240 240 281 283 279 278 282 277 271 238 225 246 266 273 234 235 255 258 276 284 289 286 298 298 281 276 267 264 262 265 264 270 272 269 271 276 270
139 144 142 129 120 122 132 139 148 166 172 132 129 135 145 121 135 147 148 146 171 205 214 210 223 199 197 225 242 247 219 155 265 249 297 343 325 340 346 345 321 310 293 276 274 272 267 250 248 254 268 271 248 260 265 281 287 279 285 280 277 287 266 266 264 263 273 276 278 280 275 270 268 273
103 105 113 128 121 119 138 137 144 132 122 101 97 118 132 128 143 146 165 177 187 195 192 208 209 216 229 250 259 255 215 243 256 172 229 287 284 306 337 320 290 296 298 306 296 276 268 267 268 244 260 275 281 264 270 266 277 282 279 273 280 281 282 282 281 278 274 275 274 275 279 279 275 270
122 120 111 106 110 122 117 119 119 126 130 125 121 116 137 141 146 179 196 185 155 172 180 189 189 212 200 247 254 278 253 236 262 193 213 177 293 309 17 344 282 289 304 305 309 305 297 277 275 270 237 246 264 277 278 267 267 272 276 276 273 270 275 278 285 286 281 284 284 278 275 275 277 277
107 114 110 109 125 144 144 142 145 143 133 131 146 155 146 140 169 185 173 187 200 193 181 208 208 220 198 237 266 271 276 260 263 264 313 306 212 290 150 232 275 291 298 305 305 306 307 303 284 266 260 258 241 252 271 288 271 259 267 279 283 281 284 280 282 286 294 293 283 282 283 276 274 273
135 142 147 156 153 154 157 155 157 165 164 159 160 173 171 177 184 197 197 208 201 193 207 214 209 217 188 236 231 209 230 281 284 231 189 242 185 258 288 296 288 285 281 282 294 293 305 304 313 308 292 274 254 235 234 244 268 280 274 277 282 284 283 287 284 281 279 279 291 295 290 286 277 271
139 151 158 166 167 161 160 168 178 171 170 177 169 174 179 187 192 195 199 206 192 202 216 223 218 195 187 219 210 203 206 223 278 328 153 168 118 227 254 270 284 295 301 304 301 300 307 307 321 324 322 324 324 289 221 222 258 272 285 282 273 275 287 288 290 287 285 287 288 288 292 289 284 277
156 164 163 165 171 159 165 182 173 170 176 177 179 173 183 202 198 188 209 193 184 193 191 202 202 199 198 197 189 190 194 188 254 297 311 332 300 295 258 253 271 288 291 286 288 293 299 300 325 332 327 322 325 317 315 230 217 251 288 294 294 289 285 290 289 289 291 291 287 290 292 292 292 291
161 171 169 168 167 169 178 177 179 179 176 181 185 185 188 193 197 197 191 157 176 185 191 177 186 181 175 168 172 159 142 154 237 227 260 277 289 261 301 305 301 300 301 291 285 291 299 310 319 327 321 318 319 309 293 294 294 284 249 277 292 296 299 300 300 297 290 289 291 288 287 292 292 294
171 168 171 170 171 180 179 170 167 176 184 175 157 154 159 157 142 144 138 137 152 151 157 161 163 155 151 139 139 187 171 183 198 243 257 322 334 321 295 296 298 298 291 290 300 299 305 299 300 299 300 299 309 306 307 306 309 293 278 282 293 298 297 292 296 298 300 296 291 291 289 290 292 298
164 171 172 173 173 169 170 171 167 165 155 139 143 146 140 129 125 129 140 148 147 148 148 146 159 155 152 156 166 182 186 153 148 213 262 266 228 259 298 299 301 296 317 314 314 309 314 309 298 296 287 287 285 282 287 294 291 292 299 294 285 291 293 302 302 302 303 306 302 295 278 269 274 280
172 170 167 158 162 160 157 154 155 151 149 156 151 147 139 144 147 145 146 148 146 147 143 147 129 135 114 132 153 122 110 170 189 202 229 261 273 264 274 283 283 300 319 312 317 313 312 302 300 301 299 282 268 269 273 271 271 276 280 290 260 233 286 303 299 304 305 302 302 304 304 307 305 307
157 155 162 151 148 154 153 155 151 147 143 140 136 140 138 142 143 160 162 162 151 144 135 121 128 140 188 210 162 156 158 195 211 231 223 233 283 290 297 304 318 317 319 305 304 305 301 290 295 302 299 286 285 288 300 313 312 312 313 310 321 310 280 269 280 305 302 306 308 306 306 312 313 312
156 155 156 155 153 158 148 145 146 139 140 144 144 144 148 153 163 158 153 148 142 151 159 177 184 172 191 185 179 162 147 171 188 214 226 246 312 314 313 328 314 309 313 300 295 288 287 296 305 308 303 308 309 343 321 303 302 308 307 311 311 311 318 318 311 301 294 300 309 309 309 310 310 303
154 153 158 160 148 146 147 147 150 151 154 152 152 152 148 152 149 150 160 166 177 173 179 190 181 176 175 174 165 142 143 173 183 202 231 242 267 298 306 300 287 282 277 276 279 283 294 302 310 315 312 313 299 306 297 300 299 299 307 312 313 319 316 316 312 307 303 297 289 286 296 304 314 310
158 155 156 151 146 148 150 151 156 158 155 159 155 149 154 159 171 182 178 178 178 190 183 170 166 156 160 166 144 136 157 184 183 184 249 270 273 269 273 287 293 297 294 294 303 307 307 312 311 318 319 312 303 302 299 308 308 308 306 304 309 319 320 321 317 309 300 294 295 296 300 305 305 300
160 155 149 150 148 149 153 152 148 151 149 150 150 162 167 165 173 177 182 177 181 173 164 161 155 154 139 137 132 152 189 164 158 190 193 240 270 285 283 287 301 307 306 303 313 307 314 313 309 314 298 300 298 283 290 299 302 306 307 313 317 321 320 322 325 325 322 318 314 316 316 316 320 317